Content
SEND FEEDBACK

Daily
Averages
Monthly
Summary
United States of America

ROCKFISH, VIRGINIA


Home > North America > United States > Virginia
Elevation: 49 feet     Latitude: 37 48N     Longitude: 078 45W

WEATHER
 
SELECT A DAY
Number of Records: 204,990;   Date Range: 1/1/95 - 7/29/14
 
SHARE

PRINT THIS DATA

[ ← Previous Day ]
WEATHER ALMANAC - FEBRUARY 13, 2013
[ Next Day → ]
[ °C ]   °F
Weather ElementAverageHighLow
Temperature39.6 °F46.8 °F (1:55 pm)33.6 °F (4:55 am)
Dewpoint34.6 °F39.2 °F (5:48 pm)25.9 °F (4:55 am)
Humidity83.6 %100 % (5:48 pm)54 % (11:55 am)
Barometer29.74 in29.95 in (1:55 am)29.68 in (3:55 pm)
Wind Speed2.3 mph8.1 mph (8:55 pm)
Weather ElementAverage
Visibility6.6 mi
Wind DirectionE (93.7 °)

Weather ElementTotal
Precipitation0.13 in
Heating Degree Days24.8 (Base 65)
Averaged from 63 records on February 13, 2013
WEATHER CONDITIONS BREAKOUT
WIND DIRECTION BREAKOUT
WEATHER BY HOUR - FEBRUARY 13, 2013
[ °C ]   °F
Local TimeTemperatureDewpointHumidityBarometerVisibilityWind DirectionWind SpeedGust SpeedPrecipitationEventsConditions
1:55 AM39.2 °F27.1 °F62 %29.95 in10.0 miCalmClear
2:55 AM37.9 °F26.2 °F63 %29.93 in10.0 miCalmClear
3:55 AM36.5 °F26.1 °F66 %29.91 in10.0 miCalmMostly Cloudy
4:55 AM33.6 °F25.9 °F73 %29.92 in10.0 miCalmPartly Cloudy
5:55 AM34.3 °F26.8 °F74 %29.91 in10.0 miCalmOvercast
6:55 AM36.1 °F26.4 °F68 %29.89 in10.0 miCalmOvercast
7:55 AM36.3 °F26.8 °F68 %29.91 in10.0 miCalmMostly Cloudy
8:55 AM38.5 °F27.7 °F65 %29.91 in10.0 miCalmOvercast
9:55 AM39.6 °F26.6 °F60 %29.88 in10.0 miCalmOvercast
10:55 AM42.3 °F27.9 °F57 %29.86 in10.0 miVariable4.6 mphMostly Cloudy
11:55 AM45.1 °F29.3 °F54 %29.81 in10.0 miSE (140°)6.9 mphPartly Cloudy
12:55 PM46.2 °F30.2 °F54 %29.77 in10.0 miSSE (150°)4.6 mphMostly Cloudy
1:55 PM46.8 °F31.5 °F55 %29.73 in10.0 miCalmPartly Cloudy
2:20 PM46.4 °F32.0 °F57 %29.72 in10.0 miEast (100°)4.6 mphRainLight Rain
2:34 PM44.6 °F33.8 °F66 %29.71 in10.0 miCalmRainLight Rain
2:43 PM44.6 °F35.6 °F71 %29.70 in10.0 miCalmMostly Cloudy
2:48 PM44.6 °F33.8 °F66 %29.70 in10.0 miVariable3.5 mphRainLight Rain
2:55 PM44.2 °F34.9 °F70 %29.69 in10.0 miCalm0.00 inRainLight Rain
2:58 PM44.6 °F35.6 °F71 %29.69 in10.0 miCalmMostly Cloudy
3:55 PM44.1 °F34.2 °F68 %29.68 in10.0 miCalm0.00 inOvercast
4:00 PM44.6 °F33.8 °F66 %29.68 in10.0 miNE (50°)3.5 mphRainLight Rain
4:34 PM41.0 °F37.4 °F87 %29.68 in5.0 miCalmRainLight Rain
4:38 PM41.0 °F37.4 °F87 %29.69 in4.0 miCalmRainLight Rain
4:47 PM41.0 °F37.4 °F87 %29.69 in4.0 miCalmRainLight Rain
4:50 PM41.0 °F37.4 °F87 %29.69 in4.0 miCalmRainLight Rain
4:51 PM41.0 °F37.4 °F87 %29.69 in4.0 miCalmRainLight Rain
4:53 PM41.0 °F37.4 °F87 %29.69 in4.0 miCalmRainLight Rain
4:55 PM41.0 °F38.1 °F89 %29.69 in4.0 miCalm0.01 inRainLight Rain
5:07 PM41.0 °F37.4 °F87 %29.70 in2.5 miCalmRainLight Rain
5:10 PM41.0 °F37.4 °F87 %29.70 in3.0 miSE (130°)3.5 mphRainLight Rain
5:44 PM39.2 °F37.4 °F93 %29.68 in2.5 miCalmRainLight Rain
5:48 PM39.2 °F39.2 °F100 %29.69 in2.0 miCalmRainLight Rain
5:52 PM39.2 °F37.4 °F93 %29.68 in2.0 miCalmRainLight Rain
5:53 PM39.2 °F37.4 °F93 %29.68 in2.5 miCalmRainLight Rain
5:55 PM39.7 °F38.1 °F94 %29.68 in2.5 miCalm0.04 inRainLight Rain
5:56 PM39.2 °F37.4 °F93 %29.68 in3.0 miCalmRainLight Rain
6:05 PM39.2 °F39.2 °F100 %29.68 in3.0 miCalmRainLight Rain
6:07 PM39.2 °F39.2 °F100 %29.68 in3.0 miCalmRainLight Rain
6:11 PM39.2 °F39.2 °F100 %29.68 in4.0 miCalmRainLight Rain
6:24 PM39.2 °F39.2 °F100 %29.69 in4.0 miCalmRainLight Rain
6:34 PM39.2 °F39.2 °F100 %29.69 in4.0 miCalmRainLight Rain
6:39 PM39.2 °F39.2 °F100 %29.69 in4.0 miVariable3.5 mphRainLight Rain
6:44 PM39.2 °F39.2 °F100 %29.69 in4.0 miCalmRainLight Rain
6:45 PM39.2 °F39.2 °F100 %29.69 in4.0 miCalmRainLight Rain
6:47 PM39.2 °F39.2 °F100 %29.70 in4.0 miNorth (360°)4.6 mphRainLight Rain
6:50 PM39.2 °F37.4 °F93 %29.69 in4.0 miNE (40°)5.8 mphRainLight Rain
6:51 PM39.2 °F37.4 °F93 %29.69 in4.0 miNE (40°)4.6 mphRainLight Rain
6:55 PM39.4 °F37.8 °F94 %29.69 in4.0 miNorth (350°)5.8 mph0.03 inRainLight Rain
6:57 PM39.2 °F37.4 °F93 %29.69 in4.0 miNorth (350°)4.6 mphRainLight Rain
7:06 PM39.2 °F37.4 °F93 %29.70 in5.0 miNorth (360°)4.6 mphRainLight Rain
7:22 PM39.2 °F35.6 °F87 %29.71 in6.0 miNW (320°)5.8 mphRainLight Rain
7:33 PM37.4 °F35.6 °F93 %29.71 in6.0 miVariable6.9 mphRainLight Rain
7:55 PM37.6 °F35.2 °F91 %29.72 in6.0 miNNW (340°)5.8 mph0.02 inRainLight Rain
8:00 PM37.4 °F35.6 °F93 %29.72 in6.0 miNNW (330°)6.9 mphRainLight Rain
8:55 PM36.3 °F34.0 °F91 %29.73 in9.0 miNW (310°)8.1 mph0.01 inRainLight Rain
9:17 PM35.6 °F33.8 °F93 %29.74 in6.0 miNW (320°)8.1 mphSnowLight Snow
9:33 PM35.6 °F33.8 °F93 %29.75 in8.0 miNW (320°)6.9 mphRainLight Rain
9:55 PM35.8 °F33.8 °F92 %29.77 in10.0 miNW (310°)6.9 mph0.02 inRainLight Rain
10:08 PM35.6 °F33.8 °F93 %29.77 in9.0 miNW (310°)8.1 mphRainLight Rain
10:29 PM35.6 °F33.8 °F93 %29.77 in10.0 miNW (310°)5.8 mphOvercast
10:45 PM35.6 °F33.8 °F93 %29.78 in9.0 miNW (320°)3.5 mphOvercast
10:55 PM36.0 °F33.6 °F91 %29.79 in9.0 miNW (310°)5.8 mph0.00 inOvercast
11:55 PM36.0 °F33.3 °F90 %29.80 in7.0 miNNW (330°)3.5 mphMostly Cloudy
Hourly data recorded from KDAA, located miles away from Rockfish, Virginia







STORIES FROM OUR PARTNERS